[[{"header":{"parameterUnit":"m.s-1","parameterCategory":1,"la1":30.2991,"la2":30.254,"lo1":-89.0895,"lo2":-89.0444,"dy":0.0017,"dx":0.0017,"nx":28,"ny":28,"refTime":"2024-07-17T03:00:00:Z","depth":0,"parameterNumber":2,"parameterNumberName":"U-component_of_WINDS"},"data":[0,0,0,0,0,0,0,0,0,0,0,0,0,0,0,0,0,0,0,0,0,0,0,0,0,0,0,0,0,0,0,0,0,0,0,0,0,0,0,0,0,0,0,0,0,0,0,0,0,0,0,0,0,0,0,0,0,0,1.7985,1.7985,0,1.8039,1.804,1.804,1.8068,1.8068,1.8068,1.8068,1.8126,1.8127,1.8129,0,0,0,0,0,0,0,0,0,0,0,0,0,1.7908,1.7909,1.7985,1.7985,1.7986,1.8039,1.804,1.8041,1.8068,1.8068,1.8068,1.8068,1.8125,1.8127,1.8129,0,0,0,0,0,0,0,0,0,0,0,0,0,1.795,1.7909,1.7985,1.8006,1.8009,1.8039,1.804,1.8041,1.8068,1.8068,1.8068,1.8068,1.8124,1.8127,1.8129,1.8143,0,0,1.8136,1.8137,0,0,0,0,0,0,0,0,1.7947,1.7952,1.8002,1.8005,1.8007,1.8047,1.8034,1.8075,1.8068,1.8045,1.8068,1.8068,1.8099,1.8104,1.8114,1.8145,1.8148,1.8136,1.8138,1.8139,1.8139,0,0,0,0,0,0,0,1.7944,1.795,1.8006,1.8003,1.8006,1.8014,1.802,1.8042,1.8072,1.8047,1.8049,1.8055,1.8101,1.8112,1.8116,1.8149,1.8136,1.8138,1.814,1.814,1.8196,1.8197,0,0,0,0,0,0,1.7938,1.7948,1.8005,1.8008,1.7977,1.8015,1.8022,1.8034,1.8072,1.8077,1.8055,1.8057,1.8108,1.8113,1.8118,1.8137,1.8138,1.8141,1.8142,1.8196,1.8196,1.8197,0,0,0,0,0,0,1.7936,1.7942,1.8002,1.7978,1.7987,1.8017,1.803,1.8035,1.8046,1.8078,1.8083,1.8061,1.8108,1.8115,1.8137,1.814,1.8142,1.8144,1.8196,1.8196,1.8196,1.8176,0,0,0,0,0,0,1.7933,1.7942,1.7946,1.7978,1.7988,1.8019,1.803,1.8036,1.805,1.8052,1.8084,1.809,1.8109,1.8133,1.8139,1.8143,1.8146,1.8196,1.8196,1.8196,1.8176,1.8175,1.8174,0,0,0,0,0,1.7931,1.7938,1.7946,1.7953,1.7994,1.8019,1.8025,1.8046,1.805,1.8055,1.8076,1.8089,1.8139,1.8135,1.8142,1.8147,1.8196,1.8196,1.8196,1.8177,1.8176,1.8174,0,0,0,0,0,0,1.7906,1.7943,1.7952,1.797,1.7991,1.8024,1.8031,1.8044,1.8065,1.8066,1.8092,1.8099,1.8119,1.8135,1.8131,1.8163,1.8169,1.817,1.8151,1.815,1.8149,1.8145,1.8147,0,0,0,0,0,1.7902,1.7919,1.7951,1.7964,1.7974,1.8001,1.8013,1.8027,1.8051,1.806,1.8082,1.8105,1.8126,1.8139,1.816,1.8179,1.8188,1.8186,1.8185,1.8184,1.8185,1.8198,1.8198,1.8197,1.8197,1.8197,0,0,1.7895,1.7918,1.7927,1.7959,1.7977,1.7995,1.8008,1.8026,1.804,1.8063,1.8085,1.8102,1.813,1.8151,1.8161,1.8165,1.8187,1.8184,1.8183,1.8185,1.8198,1.8198,1.8198,1.8198,1.8198,1.8198,0,0,1.7892,1.791,1.7923,1.7942,1.7969,1.7987,1.7991,1.8022,1.8034,1.8057,1.8075,1.8092,1.8128,1.8147,1.8161,1.8167,1.818,1.8174,1.8168,1.8181,1.8181,1.8181,1.8184,1.8185,1.8175,1.8175,1.8175,0,1.788,1.7906,1.7929,1.7946,1.796,1.7982,1.7997,1.8014,1.8047,1.8057,1.8061,1.8107,1.8127,1.8153,1.8155,1.8165,1.8171,1.817,1.8179,1.8179,1.818,1.8183,1.8184,1.8174,1.8174,1.8174,1.8174,0,1.7891,1.7909,1.7917,1.7948,1.7964,1.798,1.8006,1.8019,1.8033,1.8051,1.8075,1.81,1.8127,1.8135,1.8148,1.8164,1.8165,1.8173,1.818,1.8178,1.8182,1.8183,1.8172,1.8173,1.8173,1.8173,0,0,1.7872,1.7917,1.7919,1.7934,1.7967,1.7982,1.8,1.8026,1.8038,1.806,1.8077,1.8107,1.8115,1.8132,1.8148,1.8159,1.8163,1.8166,1.8167,1.8165,1.8183,1.8177,1.8178,1.8172,1.8173,1.8173,1.8181,0,1.7873,1.7905,1.7926,1.795,1.7968,1.799,1.8006,1.8029,1.8047,1.8066,1.8086,1.8107,1.8116,1.8127,1.8138,1.816,1.8168,1.816,1.8189,1.819,1.8181,1.818,1.8173,1.8179,1.8183,1.8183,1.8183,0,1.7878,1.7901,1.7926,1.7958,1.7967,1.798,1.8007,1.8025,1.8052,1.8064,1.8083,1.81,1.8122,1.8126,1.8157,1.8151,1.8165,1.8177,1.8178,1.8182,1.8186,1.8183,1.8182,1.8183,1.8185,1.8185,1.8185,0,1.7863,1.7899,1.7919,1.7932,1.797,1.7979,1.7996,1.8022,1.8037,1.8061,1.8072,1.8098,1.8112,1.8133,1.8157,1.8158,1.8185,1.8192,1.8197,1.8197,1.8202,1.8201,1.8202,1.821,1.821,1.821,1.821,0,1.7862,1.7877,1.7913,1.7925,1.7943,1.7969,1.7986,1.8005,1.8029,1.8046,1.8068,1.8084,1.8115,1.8135,1.8155,1.8177,1.8184,1.8195,1.82,1.8193,1.8192,1.8202,1.8203,1.821,1.821,1.821,1.821,0,1.7847,1.7872,1.7895,1.793,1.7939,1.7951,1.7981,1.7995,1.8015,1.8037,1.8044,1.8075,1.81,1.8127,1.8161,1.8174,1.8197,1.8203,1.8187,1.819,1.8194,1.8194,1.8202,1.8205,1.821,1.821,1.821,0,1.7845,1.7857,1.7893,1.7906,1.7922,1.7943,1.7958,1.7985,1.8,1.8033,1.8043,1.807,1.8093,1.8133,1.8159,1.8186,1.8194,1.8195,1.8198,1.8192,1.8195,1.8194,1.8196,1.8194,1.8194,1.8194,1.8194,0,1.7838,1.785,1.7872,1.7898,1.7916,1.7938,1.7961,1.797,1.8002,1.8019,1.8045,1.8062,1.8098,1.8125,1.8155,1.8174,1.819,1.8193,1.8196,1.8189,1.8179,1.8185,1.8185,1.8192,1.8192,1.8192,1.8193,1.8193,1.783,1.7842,1.787,1.7894,1.7914,1.7935,1.795,1.7972,1.7994,1.8025,1.804,1.8066,1.8095,1.8137,1.8156,1.8178,1.8182,1.8186,1.8187,1.8187,1.8186,1.8175,1.8183,1.8183,1.8183,1.8183,1.8183,0,1.7826,1.7845,1.7866,1.7898,1.7917,1.793,1.7956,1.7972,1.7994,1.8019,1.8042,1.8073,1.8099,1.8129,1.8158,1.817,1.8178,1.8176,1.8176,1.818,1.818,1.8175,1.8169,1.8169,1.8169,1.8169,1.8169,1.8169,1.7825,1.7847,1.7863,1.7895,1.7915,1.7941,1.7955,1.7975,1.7996,1.8029,1.8051,1.807,1.8098,1.8129,1.8155,1.8163,1.8173,1.8169,1.8179,1.8179,1.818,1.8181,1.8176,1.8171,1.8171,1.8178,1.8178,1.8178]},{"header":{"parameterUnit":"m.s-1","parameterCategory":1,"la1":30.2991,"la2":30.254,"lo1":-89.0895,"lo2":-89.0444,"dy":0.0017,"dx":0.0017,"nx":28,"ny":28,"refTime":"2024-07-17T03:00:00:Z","depth":0,"parameterNumber":3,"parameterNumberName":"V-component_of_WINDS"},"data":[0,0,0,0,0,0,0,0,0,0,0,0,0,0,0,0,0,0,0,0,0,0,0,0,0,0,0,0,0,0,0,0,0,0,0,0,0,0,0,0,0,0,0,0,0,0,0,0,0,0,0,0,0,0,0,0,0,0,0.141,0.1409,0,0.1386,0.1385,0.1385,0.139,0.1391,0.1391,0.1391,0.1364,0.1363,0.1362,0,0,0,0,0,0,0,0,0,0,0,0,0,0.1455,0.1454,0.141,0.1409,0.1409,0.1386,0.1385,0.1385,0.139,0.1391,0.1391,0.1392,0.1364,0.1363,0.1362,0,0,0,0,0,0,0,0,0,0,0,0,0,0.1434,0.1454,0.141,0.1409,0.1408,0.1386,0.1385,0.1385,0.139,0.1391,0.1391,0.1392,0.1365,0.1363,0.1361,0.1337,0,0,0.1356,0.1355,0,0,0,0,0,0,0,0,0.1435,0.1432,0.1409,0.1409,0.1408,0.1392,0.1392,0.1369,0.139,0.1397,0.1391,0.1392,0.1372,0.137,0.1364,0.1336,0.1335,0.1356,0.1355,0.1354,0.1354,0,0,0,0,0,0,0,0.1436,0.1433,0.14,0.1409,0.1408,0.1408,0.1406,0.1387,0.1381,0.1396,0.1397,0.1394,0.1372,0.1366,0.1364,0.1335,0.1356,0.1355,0.1354,0.1353,0.1283,0.1283,0,0,0,0,0,0,0.1439,0.1434,0.1401,0.1399,0.1424,0.1407,0.1404,0.1396,0.1381,0.138,0.1393,0.1394,0.1368,0.1366,0.1363,0.1332,0.1354,0.1353,0.1352,0.1284,0.1283,0.1282,0,0,0,0,0,0,0.144,0.1436,0.1402,0.1417,0.1413,0.1405,0.1396,0.1395,0.1389,0.1379,0.1378,0.1388,0.1369,0.1365,0.1343,0.1331,0.1352,0.135,0.1285,0.1284,0.1283,0.1272,0,0,0,0,0,0,0.1441,0.1436,0.1428,0.1417,0.1412,0.1384,0.1396,0.1394,0.1386,0.1387,0.1374,0.1372,0.1369,0.1346,0.1342,0.1329,0.1349,0.1286,0.1285,0.1283,0.1274,0.1271,0.1268,0,0,0,0,0,0.1443,0.1426,0.1428,0.1423,0.1402,0.1384,0.1381,0.1378,0.1385,0.1376,0.137,0.1373,0.1333,0.1344,0.1339,0.1326,0.1287,0.1285,0.1283,0.1275,0.1271,0.1268,0,0,0,0,0,0,0.1435,0.1424,0.1426,0.1405,0.1395,0.1385,0.1373,0.1375,0.1362,0.1363,0.136,0.1357,0.1335,0.1328,0.134,0.1301,0.1311,0.1308,0.1306,0.1303,0.13,0.1302,0.1348,0,0,0,0,0,0.1431,0.1419,0.1409,0.1392,0.1387,0.1381,0.1373,0.1372,0.1361,0.1357,0.1348,0.1337,0.1322,0.1312,0.1298,0.1273,0.1269,0.1261,0.1258,0.1256,0.1254,0.1238,0.1234,0.1276,0.1276,0.1276,0,0,0.1423,0.1415,0.1407,0.139,0.1382,0.1368,0.1377,0.1362,0.1351,0.1354,0.1333,0.1326,0.1313,0.1289,0.1278,0.1283,0.1241,0.1254,0.1252,0.1251,0.1236,0.1232,0.1228,0.1275,0.1275,0.1276,0,0,0.1399,0.1393,0.1377,0.1369,0.1357,0.1353,0.1349,0.1338,0.1334,0.1313,0.1314,0.13,0.1275,0.1265,0.1256,0.1228,0.1229,0.1223,0.1209,0.1194,0.1191,0.1188,0.1176,0.1172,0.1221,0.1221,0.1221,0,0.139,0.137,0.1368,0.1353,0.1344,0.1347,0.133,0.1321,0.1305,0.1299,0.1304,0.1271,0.1263,0.1236,0.1229,0.1222,0.1216,0.1225,0.1192,0.1189,0.1186,0.1175,0.1171,0.122,0.122,0.122,0.122,0,0.1358,0.1344,0.1332,0.1317,0.1307,0.1291,0.1285,0.1275,0.1274,0.1269,0.1247,0.1236,0.1219,0.1213,0.1212,0.1185,0.1188,0.1193,0.1203,0.1181,0.1171,0.1166,0.1219,0.1219,0.1219,0.1219,0,0,0.133,0.1314,0.1309,0.1302,0.1288,0.1277,0.1259,0.1243,0.1234,0.1222,0.1207,0.1184,0.1188,0.1178,0.1176,0.1163,0.1139,0.1169,0.1169,0.1163,0.1107,0.1103,0.1099,0.114,0.1139,0.1139,0.1108,0,0.1305,0.1276,0.1274,0.1247,0.1233,0.1234,0.1219,0.1208,0.1202,0.1188,0.1181,0.1165,0.1172,0.1166,0.1153,0.1145,0.1128,0.1147,0.1124,0.1123,0.1127,0.1093,0.109,0.1061,0.1104,0.1103,0.1103,0,0.1273,0.126,0.1232,0.122,0.1213,0.12,0.1184,0.1171,0.1158,0.1155,0.1143,0.1142,0.1122,0.1133,0.1105,0.1118,0.1108,0.1103,0.1102,0.1099,0.1111,0.1089,0.1052,0.1047,0.1096,0.1097,0.1097,0,0.1254,0.123,0.121,0.1204,0.1189,0.1179,0.1172,0.1159,0.1149,0.1135,0.1128,0.1111,0.1102,0.1088,0.1082,0.1091,0.1053,0.1064,0.1049,0.1049,0.1041,0.1041,0.1001,0.1035,0.1035,0.1035,0.1035,0,0.1226,0.1209,0.1201,0.1189,0.1169,0.1165,0.1145,0.1138,0.1127,0.1112,0.1111,0.1097,0.109,0.1074,0.1069,0.1045,0.1041,0.1036,0.1035,0.1036,0.1037,0.1029,0.1031,0.1034,0.1034,0.1035,0.1035,0,0.1202,0.1197,0.1175,0.1162,0.1158,0.1144,0.1132,0.1119,0.1113,0.1094,0.1089,0.1079,0.106,0.1052,0.1029,0.1025,0.0998,0.0998,0.1002,0.1002,0.0986,0.0988,0.094,0.0933,0.0972,0.0972,0.0972,0,0.1184,0.1171,0.1157,0.1147,0.114,0.1124,0.1114,0.1109,0.1098,0.1081,0.107,0.1051,0.1036,0.1005,0.0994,0.0976,0.0975,0.096,0.0973,0.0973,0.0974,0.0975,0.0972,0.0957,0.0957,0.0957,0.0956,0,0.1153,0.1151,0.1137,0.1121,0.1109,0.1097,0.1084,0.1076,0.1069,0.1056,0.1037,0.1025,0.1001,0.0981,0.0962,0.0953,0.0953,0.0952,0.0948,0.0948,0.0951,0.0948,0.0995,0.0954,0.0954,0.0954,0.0954,0.0954,0.1131,0.1119,0.1107,0.109,0.1081,0.1069,0.1055,0.1048,0.1032,0.1013,0.101,0.0989,0.0974,0.0948,0.0938,0.0921,0.0924,0.0918,0.0916,0.0914,0.0913,0.0954,0.0917,0.0917,0.0917,0.0917,0.0917,0,0.1099,0.1091,0.1076,0.1059,0.1046,0.1048,0.1034,0.1022,0.1004,0.0991,0.0975,0.0952,0.0933,0.0921,0.0901,0.0889,0.0888,0.0884,0.0884,0.0882,0.0911,0.0917,0.0885,0.0885,0.0885,0.0885,0.0885,0.0885,0.1081,0.106,0.1056,0.1029,0.1021,0.1001,0.0993,0.0981,0.097,0.0945,0.0929,0.0922,0.0908,0.0887,0.0868,0.0865,0.0857,0.0852,0.0849,0.0877,0.088,0.0883,0.0888,0.0851,0.0851,0.0821,0.0821,0.0821]}]]